• In India
  • List of Countries
  • For 7 days
  • Water Temperature
  • Satellite Maps
  • Weather Map
  • Weather Widgets
  • user-avatar
    Login

    Hourly Weather Miloszyn

    Today, 16 July, Monday

    Time Temperature Precipitation Wind Pressure Humidity
    00:00 +19°C° 0 mm 1 mps 751 mmHg 73%
    01:00 +17°C° 0 mm 2 mps 751 mmHg 73%
    02:00 +17°C° 0 mm 2 mps 751 mmHg 76%
    03:00 +16°C° 0 mm 2 mps 751 mmHg 79%
    04:00 +16°C° 0 mm 1 mps 751 mmHg 82%
    05:00 +17°C° 0 mm 2 mps 751 mmHg 79%
    06:00 +19°C° 0 mm 2 mps 751 mmHg 76%
    07:00 +20°C° 0 mm 2 mps 751 mmHg 73%
    08:00 +23°C° 0.1 mm 2 mps 750 mmHg 68%
    09:00 +24°C° 0.1 mm 3 mps 750 mmHg 63%
    10:00 +26°C° 0.1 mm 3 mps 750 mmHg 58%
    11:00 +27°C° 0.1 mm 3 mps 750 mmHg 55%
    12:00 +27°C° 0.1 mm 3 mps 749 mmHg 51%
    13:00 +28°C° 0.1 mm 3 mps 749 mmHg 48%
    14:00 +28°C° 0.3 mm 3 mps 749 mmHg 49%
    15:00 +28°C° 0.3 mm 3 mps 748 mmHg 50%
    16:00 +28°C° 0.3 mm 3 mps 748 mmHg 50%
    17:00 +27°C° 0.1 mm 2 mps 748 mmHg 56%
    18:00 +26°C° 0.1 mm 2 mps 748 mmHg 62%
    19:00 +24°C° 0.1 mm 2 mps 747 mmHg 68%
    20:00 +23°C° 0.5 mm 2 mps 747 mmHg 73%
    21:00 +21°C° 0.5 mm 2 mps 747 mmHg 77%
    22:00 +19°C° 0.5 mm 2 mps 747 mmHg 82%
    23:00 +19°C° 0.3 mm 2 mps 747 mmHg 85%

    Tomorrow, 17 July, Tuesday

    Time Temperature Precipitation Wind Pressure Humidity
    00:00 +18°C° 0.3 mm 2 mps 747 mmHg 88%
    01:00 +18°C° 0.3 mm 2 mps 747 mmHg 91%
    02:00 +18°C° 0 mm 2 mps 747 mmHg 92%
    03:00 +17°C° 0 mm 2 mps 747 mmHg 93%
    04:00 +17°C° 0 mm 3 mps 747 mmHg 94%
    05:00 +18°C° 0.2 mm 3 mps 747 mmHg 92%
    06:00 +19°C° 0.2 mm 4 mps 747 mmHg 89%
    07:00 +20°C° 0.2 mm 5 mps 747 mmHg 87%
    08:00 +20°C° 0.8 mm 5 mps 747 mmHg 87%
    09:00 +20°C° 0.8 mm 6 mps 747 mmHg 86%
    10:00 +20°C° 0.8 mm 6 mps 747 mmHg 86%
    11:00 +19°C° 0.7 mm 6 mps 747 mmHg 86%
    12:00 +18°C° 0.7 mm 7 mps 747 mmHg 87%
    13:00 +18°C° 0.7 mm 7 mps 746 mmHg 87%
    14:00 +18°C° 0.1 mm 7 mps 746 mmHg 86%
    15:00 +18°C° 0.1 mm 7 mps 746 mmHg 85%
    16:00 +20°C° 0.1 mm 7 mps 746 mmHg 85%
    17:00 +18°C° 0 mm 7 mps 747 mmHg 85%
    18:00 +19°C° 0 mm 6 mps 747 mmHg 85%
    19:00 +19°C° 0 mm 6 mps 747 mmHg 86%
    20:00 +19°C° 0 mm 5 mps 747 mmHg 87%
    21:00 +17°C° 0 mm 5 mps 747 mmHg 89%
    22:00 +17°C° 0 mm 5 mps 747 mmHg 90%
    23:00 +17°C° 0.1 mm 5 mps 747 mmHg 91%

    Day after tomorrow, 18 July, Wednesday

    Time Temperature Precipitation Wind Pressure Humidity
    00:00 +17°C° 0.1 mm 5 mps 747 mmHg 91%
    01:00 +17°C° 0.1 mm 5 mps 747 mmHg 92%
    02:00 +17°C° 0.1 mm 6 mps 747 mmHg 92%
    03:00 +17°C° 0.1 mm 6 mps 747 mmHg 92%
    04:00 +17°C° 0.1 mm 6 mps 747 mmHg 92%
    05:00 +17°C° 0.3 mm 6 mps 747 mmHg 91%
    06:00 +17°C° 0.3 mm 6 mps 747 mmHg 90%
    07:00 +19°C° 0.3 mm 6 mps 747 mmHg 90%
    08:00 +19°C° 1 mm 6 mps 747 mmHg 88%
    09:00 +20°C° 1 mm 6 mps 747 mmHg 85%
    10:00 +20°C° 1 mm 6 mps 748 mmHg 83%
    11:00 +20°C° 1.2 mm 6 mps 748 mmHg 83%
    12:00 +21°C° 1.2 mm 6 mps 748 mmHg 82%
    13:00 +21°C° 1.2 mm 5 mps 748 mmHg 82%
    14:00 +21°C° 0.9 mm 5 mps 748 mmHg 82%
    15:00 +21°C° 0.9 mm 5 mps 748 mmHg 82%
    16:00 +21°C° 0.9 mm 4 mps 748 mmHg 82%
    17:00 +21°C° 0.4 mm 4 mps 748 mmHg 84%
    18:00 +20°C° 0.4 mm 4 mps 748 mmHg 86%
    19:00 +20°C° 0.4 mm 4 mps 748 mmHg 87%
    20:00 +20°C° 0.1 mm 4 mps 748 mmHg 89%
    21:00 +19°C° 0.1 mm 4 mps 749 mmHg 90%
    22:00 +19°C° 0.1 mm 4 mps 749 mmHg 91%
    23:00 +19°C° 0.3 mm 4 mps 749 mmHg 91%

    19 July, Thursday

    Time Temperature Precipitation Wind Pressure Humidity
    00:00 +17°C° 0.3 mm 5 mps 749 mmHg 91%
    01:00 +17°C° 0.3 mm 5 mps 749 mmHg 92%
    02:00 +17°C° 0.5 mm 5 mps 749 mmHg 92%
    03:00 +17°C° 0.5 mm 5 mps 749 mmHg 92%
    04:00 +17°C° 0.5 mm 5 mps 749 mmHg 92%
    05:00 +17°C° 0.5 mm 6 mps 749 mmHg 92%
    06:00 +17°C° 0.5 mm 6 mps 749 mmHg 91%
    07:00 +17°C° 0.5 mm 6 mps 749 mmHg 90%
    08:00 +17°C° 0.8 mm 6 mps 750 mmHg 89%
    09:00 +19°C° 0.8 mm 5 mps 750 mmHg 88%
    10:00 +19°C° 0.8 mm 5 mps 750 mmHg 87%
    11:00 +20°C° 0.8 mm 5 mps 750 mmHg 84%
    12:00 +20°C° 0.8 mm 5 mps 750 mmHg 82%
    13:00 +21°C° 0.8 mm 4 mps 750 mmHg 80%
    14:00 +22°C° 0.2 mm 4 mps 750 mmHg 78%
    15:00 +22°C° 0.2 mm 4 mps 750 mmHg 76%
    16:00 +23°C° 0.2 mm 4 mps 750 mmHg 75%
    17:00 +22°C° 0 mm 3 mps 750 mmHg 77%
    18:00 +22°C° 0 mm 3 mps 750 mmHg 80%
    19:00 +21°C° 0 mm 2 mps 750 mmHg 83%
    20:00 +20°C° 0 mm 2 mps 750 mmHg 84%
    21:00 +19°C° 0 mm 2 mps 750 mmHg 86%
    22:00 +18°C° 0 mm 2 mps 751 mmHg 88%
    23:00 +18°C° 0 mm 2 mps 751 mmHg 88%

    20 July, Friday

    Time Temperature Precipitation Wind Pressure Humidity
    00:00 +17°C° 0 mm 2 mps 751 mmHg 88%
    01:00 +17°C° 0 mm 3 mps 751 mmHg 87%
    02:00 +16°C° 0 mm 3 mps 751 mmHg 87%
    03:00 +16°C° 0 mm 3 mps 750 mmHg 86%
    04:00 +14°C° 0 mm 3 mps 750 mmHg 86%
    05:00 +16°C° 0 mm 3 mps 750 mmHg 82%
    06:00 +17°C° 0 mm 3 mps 750 mmHg 78%
    07:00 +18°C° 0 mm 4 mps 750 mmHg 74%
    08:00 +20°C° 0 mm 4 mps 750 mmHg 67%
    09:00 +21°C° 0 mm 3 mps 750 mmHg 60%
    10:00 +24°C° 0 mm 3 mps 750 mmHg 54%
    11:00 +25°C° 0 mm 3 mps 750 mmHg 50%
    12:00 +26°C° 0 mm 3 mps 750 mmHg 47%
    13:00 +27°C° 0 mm 3 mps 750 mmHg 44%
    14:00 +27°C° 0 mm 3 mps 749 mmHg 43%
    15:00 +27°C° 0 mm 3 mps 749 mmHg 43%
    16:00 +27°C° 0 mm 2 mps 749 mmHg 42%
    17:00 +26°C° 0 mm 2 mps 749 mmHg 48%
    18:00 +25°C° 0 mm 1 mps 749 mmHg 54%
    19:00 +23°C° 0 mm 1 mps 748 mmHg 60%
    20:00 +22°C° 0 mm 1 mps 749 mmHg 63%
    21:00 +21°C° 0 mm 1 mps 749 mmHg 67%
    22:00 +19°C° 0 mm 1 mps 749 mmHg 71%
    23:00 +19°C° 0 mm 1 mps 749 mmHg 73%

    21 July, Saturday

    Time Temperature Precipitation Wind Pressure Humidity
    00:00 +18°C° 0 mm 1 mps 749 mmHg 75%
    01:00 +18°C° 0 mm 1 mps 749 mmHg 78%
    02:00 +16°C° 0 mm 1 mps 749 mmHg 78%
    03:00 +16°C° 0 mm 1 mps 749 mmHg 79%
    04:00 +16°C° 0 mm 1 mps 748 mmHg 80%
    05:00 +18°C° 0 mm 1 mps 749 mmHg 75%
    06:00 +20°C° 0 mm 1 mps 749 mmHg 71%
    07:00 +21°C° 0 mm 1 mps 749 mmHg 66%
    08:00 +23°C° 0 mm 1 mps 749 mmHg 62%
    09:00 +24°C° 0 mm 1 mps 749 mmHg 58%
    10:00 +26°C° 0 mm 1 mps 748 mmHg 54%
    11:00 +26°C° 0 mm 1 mps 748 mmHg 52%
    12:00 +27°C° 0 mm 1 mps 748 mmHg 49%
    13:00 +27°C° 0 mm 1 mps 748 mmHg 47%
    14:00 +27°C° 0 mm 1 mps 748 mmHg 48%
    15:00 +27°C° 0 mm 1 mps 747 mmHg 48%
    16:00 +27°C° 0 mm 2 mps 747 mmHg 49%
    17:00 +26°C° 0 mm 2 mps 747 mmHg 54%
    18:00 +25°C° 0 mm 2 mps 747 mmHg 60%
    19:00 +24°C° 0 mm 2 mps 747 mmHg 65%
    20:00 +23°C° 0 mm 1 mps 747 mmHg 67%
    21:00 +21°C° 0 mm 1 mps 747 mmHg 69%
    22:00 +20°C° 0 mm 1 mps 748 mmHg 71%
    23:00 +19°C° 0 mm 1 mps 748 mmHg 73%
    Show more